map of PSR home
PSR - Airport
Location
City:  Pescara, Abruzzo, Italy
Name:Abruzzo International Airport
ICAO:LIBP
IATA:PSR

Details
Type:Airport (Aerodrome, Airfield)
Use:Public/Civil, International (customs port of entry)
Latitude:4225'54"N (42.431656)
Longitude:1410'52"E (14.181067)
Datum:WGS 1984
Elevation:48 ft (15 m)
Variation:3.37E (WMM2015 magnetic declination)
0.11 annual change
Runways:1
Longest:7934 × 148 ft (2418 × 45 m), paved

Time
Time Zone:UTC+1 (DST+2)
Local Time:

Weather
METAR:LIBP 210550Z 21004KT 6000 NSC 09/08 Q1021
TAF:LIBP 210500Z 2106/2206 VRB05KT 4000 BR SCT020
BECMG 2106/2108 9000

Related Locations
Nearby:
Farthest:CHT: 11895 mi / 19143 km
Waitangi [Tuuta], CIT, NZ

Find:

   beyond  
but within

Other Information
Maps:
NOTAMs:
Links:
Sources:

  
flag of Italy
flag of Abruzzo
  

Sectional Chart

Flight Planning
at skyvector.com

Satellite Image

Google Maps Satellite view

 

Copyright © 2004-2017 Karl L. Swartz. All rights reserved.
The Great Circle Mapper name and logo are trademarks of the Great Circle Mapper.
All other trademarks mentioned herein belong to their respective owners.
Please see credits for attibutions and further copyright information.

  Follow gcmap on Facebook Follow gcmap on Twitter Follow gcmap on Google+ GCmap on LinkedIn

hCard Microformat

Geo Microformat